Location: ???????
(54.9567°N, 38.2836°E)
Time: 01:16:39
(UTC+00:00)

RESURS DK-1 - Pass Details

Date: 14 April 2024
Orbit: 543 x 547 km, 69.9° (Epoch: 18 May)

Event Time Altitude Azimuth Distance (km) Brightness Sun altitude
Exits shadow 01:02:46 15° 215° (SW) 1,493 3.9 -11.4°
Maximum altitude 01:06:02 89° 304° (WNW) 552 2.3 -11.0°
Drops below altitude 10° 01:10:06 10° 35° (NE) 1,823 6.2 -10.6°
Sets 01:12:18 0° 36° (NE) 2,720 7.4 -10.3°
